TimeMST,TemperatureF,Dew PointF,Humidity,Sea Level PressureIn,VisibilityMPH,Wind Direction,Wind SpeedMPH,Gust SpeedMPH,PrecipitationIn,Events,Conditions,WindDirDegrees,DateUTC
12:54 AM,23.0,18.0,81,30.09,10.0,Calm,Calm,-,N/A,,Clear,0,2014-03-08 07:54:00
1:54 AM,21.9,18.0,85,30.10,10.0,Calm,Calm,-,N/A,,Clear,0,2014-03-08 08:54:00
2:54 AM,19.9,17.1,89,30.12,10.0,Calm,Calm,-,N/A,,Clear,0,2014-03-08 09:54:00
3:54 AM,19.9,16.0,85,30.13,10.0,Calm,Calm,-,N/A,,Clear,0,2014-03-08 10:54:00
4:54 AM,21.9,18.0,85,30.14,10.0,NNE,4.6,-,N/A,,Clear,30,2014-03-08 11:54:00
5:54 AM,28.0,19.0,69,30.14,10.0,NNE,6.9,-,N/A,,Clear,30,2014-03-08 12:54:00
6:54 AM,32.0,19.0,59,30.16,10.0,ENE,10.4,-,N/A,,Clear,70,2014-03-08 13:54:00
7:54 AM,37.0,19.9,50,30.19,10.0,NE,9.2,-,N/A,,Clear,50,2014-03-08 14:54:00
8:54 AM,39.9,19.9,45,30.23,10.0,ENE,16.1,-,N/A,,Clear,70,2014-03-08 15:54:00
9:54 AM,43.0,19.9,40,30.27,10.0,NE,11.5,-,N/A,,Clear,50,2014-03-08 16:54:00
10:54 AM,45.0,19.0,36,30.28,10.0,NE,12.7,20.7,N/A,,Clear,50,2014-03-08 17:54:00
11:54 AM,48.0,18.0,30,30.28,10.0,NE,12.7,21.9,N/A,,Clear,40,2014-03-08 18:54:00
12:54 PM,48.9,15.1,26,30.26,10.0,ENE,13.8,21.9,N/A,,Clear,60,2014-03-08 19:54:00
1:54 PM,48.9,15.1,26,30.26,10.0,ENE,12.7,23.0,N/A,,Clear,70,2014-03-08 20:54:00
2:54 PM,50.0,14.0,24,30.27,10.0,NNE,13.8,-,N/A,,Clear,30,2014-03-08 21:54:00
3:54 PM,50.0,10.9,21,30.27,10.0,ENE,16.1,21.9,N/A,,Clear,60,2014-03-08 22:54:00
4:54 PM,50.0,10.0,20,30.26,10.0,ENE,13.8,-,N/A,,Clear,60,2014-03-08 23:54:00
5:54 PM,46.9,10.0,22,30.26,10.0,NNE,11.5,-,N/A,,Clear,30,2014-03-09 00:54:00
6:54 PM,41.0,10.9,29,30.27,10.0,North,5.8,-,N/A,,Clear,10,2014-03-09 01:54:00
7:54 PM,36.0,12.0,37,30.30,10.0,North,4.6,-,N/A,,Clear,10,2014-03-09 02:54:00
8:54 PM,27.0,14.0,58,30.36,10.0,SW,3.5,-,N/A,,Clear,230,2014-03-09 03:54:00
9:54 PM,25.0,14.0,63,30.38,10.0,NE,3.5,-,N/A,,Clear,50,2014-03-09 04:54:00
10:54 PM,23.0,12.9,65,30.39,10.0,NE,5.8,-,N/A,,Clear,40,2014-03-09 05:54:00
11:54 PM,26.1,14.0,60,30.35,10.0,NE,9.2,-,N/A,,Clear,50,2014-03-09 06:54:00